Zurück zum Katalog

FENGYUN 1C DEB

AktivSSO
NORAD 29967·DEBRIS·🇨🇳 China

Gestartet May 10, 1999 von Taiyuan Satellite Launch Center

Loading…

Nächste Überflüge (nächste 24 Stunden)

TLE

AlterndSource: Space-Track

Epoche: Sep 11, 2026, 04:26 UTC

1 29967U 99025KR  26254.18537325  .00002031  00000-0  85842-3 0  9997
2 29967  98.8545 338.0815 0074779 225.1025 164.5921 14.25184656 10699

Verfolge FENGYUN 1C DEB in Echtzeit mit AllMySat

Download on the App Store